Date String (YYYY-MM-DD hh:mm:ss) UTC,Instrument flags,Ambient pressure (hPa),Sample flow (lpm),Bypass flow (lpm),Sample temperature (°C),Ambient temperature (°C),ASC tube jacket temperature (°C),LED temperature (°C),Box temperature (°C),Sample RH (%),Span deviation,Mass concentration (μg/m³),Mass concentration (μg/m³),Mass concentration (μg/m³)
DateTimeUTC,F1_M11,P_M11,Q1_M11,Q2_M11,T1_M11,T2_M11,T3_M11,T4_M11,T5_M11,U1_M11,ZSPAN_M11,X0_M11,X2_M11,X1_M11
2022-06-22 19:00:00,,0832.5,5.01,0.00,28.9,27.3,00.0,37.7,30.8,17.9,0000.0,0015.89,0004.40,0002.95
2022-06-22 19:01:00,,0832.4,5.00,0.00,28.9,27.5,00.0,37.7,30.8,17.8,0000.0,0016.07,0004.41,0002.98
2022-06-22 19:02:00,,0832.4,5.00,0.00,29.0,27.7,00.0,37.7,30.9,17.5,0000.0,0016.29,0004.43,0002.99
2022-06-22 19:03:00,,0832.4,5.00,0.00,29.0,27.8,00.0,37.7,31.0,17.8,0000.0,0016.02,0004.45,0003.02
2022-06-22 19:04:00,,0832.4,5.00,0.00,29.0,27.9,00.0,37.7,31.0,17.8,0000.0,0016.39,0004.48,0003.03
2022-06-22 19:05:00,,0832.4,5.01,0.00,29.0,28.1,00.0,37.8,31.0,18.1,0000.0,0015.99,0004.53,0003.05
2022-06-22 19:06:00,,0832.4,5.00,0.00,29.1,28.2,00.0,37.8,31.1,17.8,0000.0,0014.81,0004.58,0003.07
2022-06-22 19:07:00,,0832.4,4.99,0.00,29.1,28.3,00.0,37.8,31.1,17.7,0000.0,0015.04,0004.58,0003.06
2022-06-22 19:08:00,,0832.4,5.01,0.00,29.1,28.2,00.0,37.8,31.1,17.8,0000.0,0016.02,0004.59,0003.07
2022-06-22 19:09:00,,0832.3,5.00,0.00,29.1,27.3,00.0,37.8,30.9,17.8,0000.0,0015.93,0004.60,0003.07
2022-06-22 19:10:00,,0832.3,5.00,0.00,29.0,26.9,00.0,37.7,30.7,18.3,0000.0,0015.71,0004.58,0003.07
2022-06-22 19:11:00,,0832.4,5.01,0.00,29.0,26.8,00.0,37.7,30.7,17.6,0000.0,0017.15,0004.58,0003.08
2022-06-22 19:12:00,,0832.3,5.01,0.00,28.9,26.9,00.0,37.7,30.7,17.3,0000.0,0017.30,0004.60,0003.08
2022-06-22 19:13:00,,0832.4,5.01,0.00,28.9,27.1,00.0,37.7,30.7,17.1,0000.0,0018.27,0004.62,0003.09
2022-06-22 19:14:00,,0832.3,5.00,0.00,28.9,27.2,00.0,37.7,30.8,16.9,0000.0,0018.12,0004.63,0003.08
2022-06-22 19:15:00,,0832.3,5.00,0.00,28.9,27.4,00.0,37.7,30.8,16.6,0000.0,0018.58,0004.66,0003.09
2022-06-22 19:16:00,,0832.4,5.00,0.00,28.9,27.6,00.0,37.7,30.9,17.1,0000.0,0018.04,0004.63,0003.09
2022-06-22 19:17:00,,0832.3,5.01,0.00,29.0,27.8,00.0,37.7,30.9,17.4,0000.0,0018.56,0004.63,0003.08
2022-06-22 19:18:00,,0832.3,5.01,0.00,29.0,27.9,00.0,37.7,31.0,16.7,0000.0,0018.61,0004.58,0003.09
2022-06-22 19:19:00,,0832.3,4.99,0.00,29.0,28.0,00.0,37.8,31.0,16.8,0000.0,0019.81,0004.51,0003.09
2022-06-22 19:20:00,,0832.3,5.00,0.00,29.1,28.2,00.0,37.8,31.1,16.8,0000.0,0020.60,0004.55,0003.06
2022-06-22 19:21:00,,0832.4,5.00,0.00,29.1,28.3,00.0,37.8,31.1,16.8,0000.0,0020.87,0004.63,0003.05
2022-06-22 19:22:00,,0832.3,5.00,0.00,29.1,28.1,00.0,37.8,31.1,16.7,0000.0,0019.56,0004.63,0003.02
2022-06-22 19:23:00,,0832.3,5.01,0.00,29.1,27.2,00.0,37.7,30.9,16.8,0000.0,0019.63,0004.61,0003.00
2022-06-22 19:24:00,,0832.3,4.99,0.00,29.0,26.9,00.0,37.7,30.7,17.1,0000.0,0017.85,0004.55,0002.98
2022-06-22 19:25:00,,0832.2,5.00,0.00,29.0,26.9,00.0,37.7,30.7,17.1,0000.0,0018.14,0004.51,0002.96
2022-06-22 19:26:00,,0832.3,5.01,0.00,28.9,26.9,00.0,37.7,30.7,17.2,0000.0,0017.55,0004.43,0002.92
2022-06-22 19:27:00,,0832.2,5.00,0.00,28.9,27.1,00.0,37.7,30.7,17.7,0000.0,0017.69,0004.46,0002.92
2022-06-22 19:28:00,,0832.3,5.00,0.00,28.9,27.3,00.0,37.7,30.8,17.6,0000.0,0017.14,0004.49,0002.93
2022-06-22 19:29:00,,0832.3,5.01,0.00,28.9,27.4,00.0,37.7,30.8,17.3,0000.0,0018.41,0004.55,0002.93
2022-06-22 19:30:00,,0832.3,5.00,0.00,28.9,27.6,00.0,37.7,30.9,17.7,0000.0,0018.23,0004.67,0002.93
2022-06-22 19:31:00,,0832.3,4.99,0.00,29.0,27.8,00.0,37.7,30.9,17.3,0000.0,0019.04,0004.67,0002.94
2022-06-22 19:32:00,,0832.3,5.01,0.00,29.0,27.9,00.0,37.7,31.0,17.4,0000.0,0018.96,0004.71,0002.97
2022-06-22 19:33:00,,0832.3,5.01,0.00,29.0,28.0,00.0,37.7,31.0,16.9,0000.0,0018.46,0004.70,0002.99
2022-06-22 19:34:00,,0832.2,4.99,0.00,29.1,28.2,00.0,37.8,31.1,16.7,0000.0,0019.01,0004.69,0003.00
2022-06-22 19:35:00,,0832.2,5.01,0.00,29.1,28.3,00.0,37.8,31.1,16.3,0000.0,0019.43,0004.83,0003.03
2022-06-22 19:36:00,,0832.2,5.00,0.00,29.1,28.3,00.0,37.8,31.1,16.2,0000.0,0018.98,0004.90,0003.05
2022-06-22 19:37:00,,0832.2,5.00,0.00,29.1,27.6,00.0,37.8,31.0,16.1,0000.0,0019.36,0004.94,0003.08
2022-06-22 19:38:00,,0832.1,5.00,0.00,29.0,27.0,00.0,37.7,30.8,16.5,0000.0,0019.21,0004.94,0003.08
2022-06-22 19:39:00,,0832.1,5.00,0.00,29.0,26.9,00.0,37.7,30.7,16.5,0000.0,0020.10,0004.94,0003.07
2022-06-22 19:40:00,,0832.1,5.02,0.00,28.9,26.9,00.0,37.7,30.7,16.9,0000.0,0018.83,0004.89,0003.07
2022-06-22 19:41:00,,0832.1,4.99,0.00,28.9,27.1,00.0,37.7,30.7,17.7,0000.0,0017.74,0004.81,0003.08
2022-06-22 19:42:00,,0832.1,5.01,0.00,28.9,27.2,00.0,37.7,30.8,17.1,0000.0,0016.85,0004.82,0003.10
2022-06-22 19:43:00,,0832.0,5.01,0.00,28.9,27.4,00.0,37.7,30.8,17.3,0000.0,0017.09,0004.82,0003.09
2022-06-22 19:44:00,,0832.1,5.00,0.00,28.9,27.6,00.0,37.7,30.9,16.6,0000.0,0017.25,0004.83,0003.07
2022-06-22 19:45:00,,0832.0,4.99,0.00,29.0,27.7,00.0,37.7,30.9,16.9,0000.0,0016.51,0004.84,0003.08
2022-06-22 19:46:00,,0832.1,5.01,0.00,29.0,27.9,00.0,37.7,31.0,17.3,0000.0,0017.85,0004.83,0003.08
2022-06-22 19:47:00,,0832.1,5.00,0.00,29.0,28.0,00.0,37.8,31.0,16.9,0000.0,0019.01,0004.84,0003.10
2022-06-22 19:48:00,,0832.0,5.02,0.00,29.0,28.1,00.0,37.8,31.1,16.6,0000.0,0020.05,0004.83,0003.11
2022-06-22 19:49:00,,0832.0,5.00,0.00,29.1,28.2,00.0,37.8,31.1,16.6,0000.0,0020.32,0004.85,0003.12
2022-06-22 19:50:00,,0832.1,5.00,0.00,29.1,28.2,00.0,37.8,31.1,16.3,0000.0,0020.33,0004.90,0003.13
2022-06-22 19:51:00,,0832.1,4.99,0.00,29.1,27.5,00.0,37.7,31.0,16.9,0000.0,0020.84,0004.91,0003.14
2022-06-22 19:52:00,,0832.0,4.99,0.00,29.0,26.9,00.0,37.7,30.8,16.6,0000.0,0021.77,0004.91,0003.14
2022-06-22 19:53:00,,0832.0,5.01,0.00,29.0,26.9,00.0,37.7,30.7,16.6,0000.0,0022.85,0004.89,0003.14
2022-06-22 19:54:00,,0831.9,5.00,0.00,28.9,26.9,00.0,37.7,30.7,16.8,0000.0,0022.18,0004.81,0003.14
2022-06-22 19:55:00,,0831.9,5.00,0.00,28.9,27.1,00.0,37.7,30.7,16.3,0000.0,0022.12,0004.75,0003.15
2022-06-22 19:56:00,,0831.9,5.01,0.00,28.9,27.3,00.0,37.7,30.8,16.7,0000.0,0022.61,0004.80,0003.17
2022-06-22 19:57:00,,0832.0,5.00,0.00,28.9,27.4,00.0,37.7,30.8,16.9,0000.0,0022.35,0004.82,0003.19
2022-06-22 19:58:00,,0832.0,5.01,0.00,28.9,27.6,00.0,37.7,30.9,17.0,0000.0,0022.56,0004.75,0003.18
2022-06-22 19:59:00,,0832.0,5.00,0.00,29.0,27.7,00.0,37.7,30.9,16.6,0000.0,0022.90,0004.79,0003.18
